OK5AM-13 Weather Reports


time (UTC)temp
F
wind
direction
speed
knots
gust
knots
rain 1hr
in
rain 24hr
in
rain mn
in
humidity
%
barometer
mb
20260502122600 73 0.0 0.0 0.00 0.00 0.00 53 9.3
20260502113431 71 0.0 0.0 0.00 0.00 0.00 56 9.3
20260502113309 71 0.0 0.0 0.00 0.00 0.00 65 9.3
20260502110722 69 0.0 0.0 0.00 0.00 0.00 62 9.3
20260502104132 69 0.0 0.0 0.00 0.00 0.00 79 9.4
20260502101543 67 0.0 0.0 0.00 0.00 0.00 78 9.4
20260502071459 57 0.0 0.0 0.00 0.00 0.00 10 9.4
20260502064910 55 0.0 0.0 0.00 0.00 0.00 10 9.4
20260502062320 52 0.0 0.0 0.00 0.00 0.00 10 9.4
20260502055729 49 0.0 0.0 0.00 0.00 0.00 10 9.4
20260502053141 45 0.0 0.0 0.00 0.00 0.00 10 9.4
20260502050554 42 0.0 0.0 0.00 0.00 0.00 10 9.4
20260502044007 41 0.0 0.0 0.00 0.00 0.00 10 9.4
20260502034824 41 0.0 0.0 0.00 0.00 0.00 10 9.4
20260502032238 42 0.0 0.0 0.00 0.00 0.00 10 9.4
20260502025650 42 0.0 0.0 0.00 0.00 0.00 10 9.4
20260502023103 42 0.0 0.0 0.00 0.00 0.00 10 9.4
20260502020515 43 0.0 0.0 0.00 0.00 0.00 10 9.4
20260502013927 43 0.0 0.0 0.00 0.00 0.00 10 9.4
20260502011340 44 0.0 0.0 0.00 0.00 0.00 10 9.4
20260502004752 44 0.0 0.0 0.00 0.00 0.00 10 9.4
20260502002205 44 0.0 0.0 0.00 0.00 0.00 10 9.4
20260501235617 44 0.0 0.0 0.00 0.00 0.00 10 9.4
20260501233031 45 0.0 0.0 0.00 0.00 0.00 10 9.4
20260501230445 45 0.0 0.0 0.00 0.00 0.00 10 9.4
20260501223859 47 0.0 0.0 0.00 0.00 0.00 10 9.4
20260501221312 48 0.0 0.0 0.00 0.00 0.00 10 9.4
20260501214726 49 0.0 0.0 0.00 0.00 0.00 10 9.4
20260501212138 50 0.0 0.0 0.00 0.00 0.00 10 9.4
20260501205552 50 0.0 0.0 0.00 0.00 0.00 10 9.4
20260501203002 50 0.0 0.0 0.00 0.00 0.00 10 9.4
20260501200415 52 0.0 0.0 0.00 0.00 0.00 10 9.4
20260501193830 53 0.0 0.0 0.00 0.00 0.00 10 9.4
20260501191244 55 0.0 0.0 0.00 0.00 0.00 10 9.4
20260501184658 57 0.0 0.0 0.00 0.00 0.00 10 9.4
20260501175526 62 0.0 0.0 0.00 0.00 0.00 98 9.4